#timestamp,LO_Frequency,Hit,StdDev 
1590670815.3,286047001.1,N
1590670835.2,286046998.4,N
1590670855.0,286046999.6,N
1590670855.9,286046999.6,N
1590670875.8,286046996.9,N
1590670895.6,286046996.8,N
1590670915.4,286046995.2,N
1590670935.3,286046993.9,N
1590670955.1,286046994.0,N
1590670975.8,286046993.4,N
1590670995.7,286046993.3,N
1590671015.5,286046996.0,N
1590671035.4,286046995.4,N
1590671055.2,286046997.7,N
1590671075.0,286046997.9,N
1590671075.9,286046997.9,N
1590671095.8,286046997.3,N
1590671115.6,286046999.5,N
1590671135.5,286046999.0,N
1590671155.3,286046999.4,N
1590671175.1,286046999.0,N
1590671195.9,286046998.3,N
1590671215.7,286046999.6,N
1590671235.5,286046995.0,N
1590671255.4,286046994.9,N
1590671275.2,286046996.2,N
1590671295.1,286046996.7,N
1590671296.0,286046996.7,N
1590671315.8,286046996.8,N
1590671335.6,286046995.4,N
1590671355.5,286046999.3,N
1590671375.3,286046999.4,N
1590671395.1,286046995.8,N
1590671415.9,286046996.0,N
1590671435.7,286046994.4,N
1590671455.6,286046992.2,Y
1590671475.4,286046996.0,P
1590671495.2,286046993.6,P
1590671515.1,286046992.0,P
1590671516.0,286046992.0,Y
1590671535.8,286046997.6,P
1590671555.6,286046994.9,P
1590671575.5,286046996.3,N
1590671595.3,286046993.8,Y
1590671615.2,286046998.3,P
1590671635.9,286046998.2,N
1590671655.7,286046999.3,N
1590671675.6,286046999.4,N
1590671695.4,286046996.8,N
1590671715.2,286046997.1,N
1590671735.1,286047000.7,N
1590671736.0,286047000.7,N
1590671755.8,286047002.6,N
1590671775.7,286047001.9,N
1590671795.5,286047002.1,N
1590671815.3,286047001.9,N
1590671835.2,286047003.9,N
1590671855.0,286047002.8,N
1590671855.9,286047002.8,N
1590671875.8,286046998.5,N
1590671895.6,286046998.7,N
1590671915.4,286046998.3,N
1590671935.3,286047001.2,N
1590671955.1,286046998.2,N
1590671975.8,286047000.3,N
1590671995.7,286047000.8,N
1590672015.5,286047000.5,N
1590672035.4,286047001.7,N
1590672055.2,286047003.8,N
1590672075.0,286047005.9,N
1590672075.9,286047005.9,N
1590672095.8,286047005.6,N
1590672115.6,286047005.1,N
1590672135.4,286047007.0,N
1590672185.3,286047005.0,E
1590672195.2,286047001.6,N
1590672215.1,286047001.2,P
1590672216.0,286047001.2,P
1590672235.8,286047001.0,Y
1590672255.7,286046999.1,P
1590672275.5,286046997.2,N
1590672295.3,286046996.6,N
1590672315.2,286046999.2,N
1590672335.0,286047000.7,N
1590672335.9,286047000.7,N
1590672355.7,286046999.1,N
1590672375.6,286046999.5,N
1590672395.4,286046997.7,N
1590672415.3,286046995.6,N
1590672435.1,286046998.0,N
1590672436.0,286046998.0,N
1590672455.8,286046997.5,N
1590672475.7,286046999.4,N
1590672495.5,286046996.5,N
1590672515.3,286046996.7,N
1590672535.2,286046999.4,N
1590672555.0,286046998.6,N
1590672555.9,286046998.6,N
1590672575.8,286046996.9,N
1590672595.6,286046999.1,N
1590672615.4,286046999.1,N
1590672635.3,286046998.9,N
1590672655.1,286046999.4,N
1590672675.8,286046997.2,N
1590672695.7,286046997.3,N
1590672715.5,286046996.5,N
1590672735.4,286046998.1,N
1590672755.2,286047000.0,N
1590672775.0,286047000.9,N
1590672775.9,286047000.9,N
1590672795.8,286046996.7,N
1590672815.6,286046997.8,N
1590672835.4,286046996.1,N
1590672855.3,286046994.2,Y
1590672875.1,286046996.0,P
1590672895.9,286046997.6,N
1590672915.7,286046996.7,P
1590672935.5,286046998.4,N
1590672955.4,286046998.3,N
1590672975.2,286046998.3,N
1590672995.1,286047004.2,Y
1590672996.0,286047004.2,P
1590673015.8,286047005.5,N
1590673035.6,286047003.6,N
1590673055.5,286047005.6,N
1590673075.3,286047005.5,N
1590673095.1,286047005.6,N
1590673115.9,286047005.4,N
1590673135.7,286047005.1,N
1590673155.6,286047006.9,N
1590673175.4,286047006.5,N
1590673195.2,286047008.5,Y
1590673215.1,286047004.0,P
1590673216.0,286047004.0,P
1590673235.8,286047002.8,P
1590673255.6,286046999.8,N
1590673275.5,286047001.1,N
1590673295.3,286047001.0,N
1590673315.2,286046999.9,N
1590673335.9,286047001.2,N
1590673355.7,286046998.4,N
1590673375.6,286046999.2,N
1590673395.4,286046997.3,N
1590673415.2,286046998.6,N
1590673435.1,286046999.9,N
1590673436.0,286046999.9,N
1590673455.8,286047000.0,N
1590673475.7,286047001.0,N
1590673495.5,286047000.7,N
1590673515.3,286047000.0,N
1590673535.2,286047002.5,N
1590673555.9,286047001.6,N
1590673575.7,286047002.4,N
1590673595.6,286047002.4,N
1590673615.4,286047003.7,N
1590673635.3,286047006.0,Y
1590673655.1,286047002.8,P
1590673656.0,286047002.8,P
1590673705.9,286046998.2,E
1590673715.8,286046998.2,N
1590673735.6,286046998.1,P
1590673755.5,286046997.2,P
1590673775.3,286046996.7,Y
1590673795.1,286047002.1,P
1590673815.9,286047001.8,N
1590673835.7,286047003.5,N
1590673855.5,286047003.8,N
1590673875.4,286047001.7,N
1590673895.2,286047003.8,N
1590673915.1,286047003.0,N
1590673916.0,286047003.0,N
1590673935.8,286047003.7,N
1590673955.6,286047003.6,N
1590673975.5,286047002.8,N
1590673995.3,286047002.1,N
1590674015.1,286047002.0,N
1590674035.9,286047002.2,N
1590674055.7,286047002.6,N
1590674075.6,286047001.0,N
1590674095.4,286046998.1,N
1590674115.2,286046999.1,N
1590674135.1,286046996.5,N
1590674136.0,286046996.5,N
1590674155.8,286046998.2,N
1590674175.6,286046998.4,N
1590674195.5,286046999.0,N
1590674215.3,286046997.7,N
1590674235.2,286046995.3,N
1590674255.9,286046993.5,N
1590674275.7,286046994.1,N
1590674295.6,286046994.0,N
1590674315.4,286046991.7,N
1590674335.2,286046992.6,N
1590674355.1,286046994.0,N
1590674356.0,286046994.0,N
1590674375.8,286046993.3,N
1590674395.7,286046993.3,N
